FREGAT DEB, 45822

Orbit data source: Space-Track

FREGAT DEB, 45822 is space debris in LEO originally from a launch on Mon, 18 Jul 2011 UTC launched from the Tyuratam Missile And Space Complex (TTMTR). Debris objects in space refer to the collection of defunct objects orbiting the Earth. Examples of debris include non-operational satellites, rocket bodies, and fragments generated from explosions, collisions, or faulty payload assembly.

Loading next visibility...
Identifier
45822, 2011-037BG
Orbit
LEO
Country
Flag of CISCIS
Related business
Manufacturer
Lavochkin
Mission
Spacecraft
Bus & Motor
Unknown
Mass
Unknown
Launch date (UTC)
2011-07-18 (15 years ago)
Launch vehicle
Unknown
Launch site
Tyuratam Missile And Space Complex (TTMTR)
Object type
Payload
Rocket body
Debris
Shape & HBR
Unknown shape, 0.1 m
Radar Cross Section
Medium (>0.1 m² and <1 m²)

Expand to show TLE details & history
Last TLE update: 2 days ago

TLE from 2 days ago
0 FREGAT DEB
1 45822U 11037BG  26171.35695464  .00008292  00000-0  24843-2 0  9996
2 45822  51.3293 281.2344 1018125  59.4347 310.3019 12.92905125263150
Epoch: 2026-06-20T08:34Z
TLE epoch observation values (Epoch: 2026-06-20T08:34:00.880Z)
Latitude
-0.00004°
Longitude
-115.84204°
Altitude
836.64 km
Speed
7.652 km/s
True Right ascension
18h 44m 56s
True Declination
0° 00' 00"
Sunlit
Object was in full shadow at epoch
Visualization orbit readout
Latitude
Unknown
Longitude
Unknown
Altitude
Unknown
Speed
Unknown
Apparent Right ascension
Unknown
Apparent Declination
Unknown
Sunlit
N/A
Visualization observer readout
Local Sidereal Time
21:36:27
Azimuth
Unknown
Elevation
Unknown
Doppler factor
Unknown
Orbital elements
Apogee altitude
2,071.285 km
Perigee altitude
509.755 km
Semi-major axis
7,668.657 km
Eccentricity
0.10181
Inclination
51.3293°
RAAN
281.2344°
Arg. of periapsis
59.4347°
True anomaly
300.65547°
Mean anomaly
310.3019°
Eccentric anomaly
305.55614°
Mean motion
3.23195 °/min
Orbital period
111.39 mins
BSTAR
0.0024843
Loading maneuver chart data...
Computing Atmospheric mass density...
Loading historical data...
Loading historical data...
Loading historical data...
Loading historical data...
Loading historical data...
Loading historical data...
Loading historical data...

Documentation

Showing up to 5 results
|